Location: Artiguedieu
(43.5000°N, 0.5454°E)
Time: 18:30:34
(UTC+00:00)

Transit 2A Rocket - Pass Details

Date: 29 July 2021
Orbit: 586 x 916 km, 66.7° (Epoch: 21 September)

Event Time Altitude Azimuth Distance (km) Brightness Sun altitude
Rises 14:13:30 0° 194° (SSW) 2,816 8.3 53.2°
Reaches altitude 10° 14:15:43 10° 189° (S) 1,939 7.6 52.9°
Maximum altitude 14:19:53 48° 115° (ESE) 827 5.6 52.2°
Drops below altitude 10° 14:24:22 10° 42° (NE) 2,089 7.0 51.5°
Sets 14:26:51 0° 36° (NE) 3,059 7.8 51.1°
